Location: Dead Woman Crossing
(43.5369°N, 106.3228°W)
Time: 19:52:26
(UTC+00:00)

deb Delta 126 - Pass Details

Date: 15 December 2022
Orbit: 1045 x 1647 km, 101.7° (Epoch: 03 February)

Event Time Altitude Azimuth Distance (km) Brightness Sun altitude
Exits shadow 03:27:18 25° 323° (NW) 2,067 ? -42.1°
Maximum altitude 03:28:48 27° 302° (WNW) 1,994 ? -42.4°
Drops below altitude 10° 03:34:26 10° 248° (WSW) 3,120 ? -43.4°
Sets 03:37:35 0° 237° (WSW) 4,169 ? -44.0°
